Weather History for KWWR - February, 2013

Change the Weather History Date:

Monday, February 18, 2013

  Actual Average (KGAG) Record (KGAG)
Temperature  
Mean Temperature 44 °F -  
Max Temperature 57 °F 53 °F 82 °F (1986)
Min Temperature 30 °F 24 °F -5 °F (1993)
Degree Days  
Heating Degree Days 20    
Moisture  
Dew Point 24 °F    
Average Humidity 44    
Maximum Humidity 69    
Minimum Humidity 25    
Precipitation  
Precipitation 0.00 in - - ()
Sea Level Pressure  
Sea Level Pressure 29.87 in    
Wind  
Wind Speed 20 mph (NW)    
Max Wind Speed 31 mph    
Max Gust Speed 40 mph    
Visibility 10 miles    
Events      
Averages and records for this station are not official NWS values.
T = Trace of Precipitation, MM = Missing Value Source: NWS Daily Summary

Daily Weather History Graph

Daily Weather History Graph

Search for Another Location

Airport or City:

Trip Planner

Search our weather history database for the weather conditions in past years. The results will help you decide how hot, cold, wet, or windy it might be!

Date:

Astronomy

Feb. 18, 2013 Rise Set
Actual Time 7:22 AM CST 6:22 PM CST
Civil Twilight 6:55 AM CST 6:48 PM CST
Nautical Twilight 6:25 AM CST 7:18 PM CST
Astronomical Twilight 5:55 AM CST 7:48 PM CST
Moon 12:14 PM CST (2/18) 1:58 AM CST (2/18)
Length of Visible Light 11h 52m
Length of Day
11h 00m
First Quarter, 58% of the Moon is Illuminated
Feb 18
First Quarter
Feb 25
Full
Mar 4
Last Quarter
Mar 11
New
Mar 19
First Quarter

Hourly Weather History & Observations

Time (CST) Temp. Windchill Dew Point Humidity Pressure Visibility Wind Dir Wind Speed Gust Speed Precip Events Conditions
12:15 AM 57.2 °F - 21.2 °F 25% 29.57 in 10.0 mi South 27.6 mph 35.7 mph N/A   Clear
12:35 AM 55.4 °F - 21.2 °F 26% 29.56 in 10.0 mi South 28.8 mph 38.0 mph N/A   Clear
12:55 AM 55.4 °F - 21.2 °F 26% 29.56 in 10.0 mi South 29.9 mph 36.8 mph N/A   Clear
1:15 AM 53.6 °F - 23.0 °F 30% 29.55 in 10.0 mi SSW 27.6 mph 35.7 mph N/A   Clear
1:35 AM 53.6 °F - 23.0 °F 30% 29.54 in 10.0 mi South 28.8 mph 35.7 mph N/A   Clear
1:55 AM 53.6 °F - 24.8 °F 33% 29.55 in 10.0 mi SW 20.7 mph 39.1 mph N/A   Clear
2:15 AM 53.6 °F - 24.8 °F 33% 29.55 in 10.0 mi SSW 23.0 mph 34.5 mph N/A   Clear
2:35 AM 51.8 °F - 24.8 °F 35% 29.55 in 10.0 mi South 23.0 mph 29.9 mph N/A   Clear
2:55 AM 51.8 °F - 24.8 °F 35% 29.56 in 10.0 mi SSW 20.7 mph 26.5 mph N/A   Clear
3:15 AM 50.0 °F - 26.6 °F 40% 29.58 in 10.0 mi SSW 16.1 mph 23.0 mph N/A   Clear
3:35 AM 46.4 °F 41.1 °F 26.6 °F 46% 29.59 in 10.0 mi WSW 11.5 mph - N/A   Clear
3:55 AM 46.4 °F 40.4 °F 26.6 °F 46% 29.59 in 10.0 mi WSW 13.8 mph - N/A   Clear
4:15 AM 46.4 °F 40.4 °F 23.0 °F 40% 29.60 in 10.0 mi WSW 13.8 mph 23.0 mph N/A   Clear
4:35 AM 44.6 °F 38.8 °F 23.0 °F 43% 29.61 in 10.0 mi West 11.5 mph 19.6 mph N/A   Clear
4:55 AM 44.6 °F 38.8 °F 24.8 °F 46% 29.63 in 10.0 mi WNW 11.5 mph 16.1 mph N/A   Clear
5:15 AM 42.8 °F 36.6 °F 26.6 °F 53% 29.65 in 10.0 mi West 11.5 mph - N/A   Clear
5:35 AM 42.8 °F 37.0 °F 28.4 °F 57% 29.66 in 10.0 mi WNW 10.4 mph - N/A   Clear
5:55 AM 41.0 °F 34.7 °F 28.4 °F 61% 29.67 in 10.0 mi NW 10.4 mph - N/A   Clear
6:15 AM 41.0 °F 33.1 °F 30.2 °F 65% 29.67 in 10.0 mi NW 15.0 mph 20.7 mph N/A   Clear
6:35 AM 41.0 °F 33.5 °F 30.2 °F 65% 29.69 in 10.0 mi NNW 13.8 mph 20.7 mph N/A   Clear
6:55 AM 41.0 °F 32.2 °F 30.2 °F 65% 29.70 in 10.0 mi NNW 18.4 mph 25.3 mph N/A   Clear
7:15 AM 41.0 °F 32.2 °F 30.2 °F 65% 29.71 in 10.0 mi NNW 18.4 mph 29.9 mph N/A   Clear
7:35 AM 41.0 °F 32.5 °F 30.2 °F 65% 29.73 in 10.0 mi NNW 17.3 mph 23.0 mph N/A   Clear
7:55 AM 41.0 °F 32.2 °F 30.2 °F 65% 29.76 in 10.0 mi NW 18.4 mph 24.2 mph N/A   Clear
8:15 AM 41.0 °F 32.2 °F 28.4 °F 61% 29.77 in 10.0 mi NW 18.4 mph 28.8 mph N/A   Clear
8:35 AM 41.0 °F 30.5 °F 28.4 °F 61% 29.80 in 10.0 mi NW 26.5 mph 32.2 mph N/A   Clear
8:55 AM 42.8 °F 33.1 °F 28.4 °F 57% 29.81 in 10.0 mi NNW 25.3 mph 33.4 mph N/A   Clear
9:15 AM 42.8 °F 32.1 °F 28.4 °F 57% 29.83 in 10.0 mi NNW 31.1 mph 36.8 mph N/A   Clear
9:35 AM 44.6 °F 34.9 °F 26.6 °F 49% 29.84 in 10.0 mi NNW 28.8 mph 39.1 mph N/A   Clear
9:55 AM 44.6 °F 35.3 °F 26.6 °F 49% 29.87 in 10.0 mi NNW 26.5 mph 40.3 mph N/A   Clear
10:15 AM 46.4 °F 37.5 °F 26.6 °F 46% 29.88 in 10.0 mi NNW 27.6 mph 36.8 mph N/A   Clear
10:35 AM 46.4 °F 37.9 °F 26.6 °F 46% 29.89 in 10.0 mi NNW 25.3 mph 34.5 mph N/A   Clear
10:55 AM 46.4 °F 37.5 °F 26.6 °F 46% 29.90 in 10.0 mi NNW 27.6 mph 36.8 mph N/A   Clear
11:15 AM 50.0 °F - 26.6 °F 40% 29.92 in 10.0 mi NNW 19.6 mph 33.4 mph N/A   Clear
11:35 AM 48.2 °F - 26.6 °F 43% 29.93 in 10.0 mi NNW 25.3 mph 34.5 mph N/A   Clear
11:55 AM 48.2 °F - 23.0 °F 37% 29.93 in 10.0 mi NNW 27.6 mph 38.0 mph N/A   Clear
12:15 PM 50.0 °F - 24.8 °F 37% 29.94 in 10.0 mi NNW 27.6 mph 38.0 mph N/A   Clear
12:35 PM 50.0 °F - 26.6 °F 40% 29.94 in 10.0 mi NW 29.9 mph 35.7 mph N/A   Clear
12:55 PM 50.0 °F - 24.8 °F 37% 29.94 in 10.0 mi NNW 26.5 mph 33.4 mph N/A   Clear
1:15 PM 50.0 °F - 23.0 °F 35% 29.94 in 10.0 mi NNW 26.5 mph 34.5 mph N/A   Clear
1:35 PM 51.8 °F - 23.0 °F 33% 29.94 in 10.0 mi NNW 23.0 mph 34.5 mph N/A   Clear
1:55 PM 51.8 °F - 23.0 °F 33% 29.94 in 10.0 mi NNW 24.2 mph 32.2 mph N/A   Clear
2:15 PM 51.8 °F - 24.8 °F 35% 29.95 in 10.0 mi NW 24.2 mph 33.4 mph N/A   Clear
2:35 PM 51.8 °F - 23.0 °F 33% 29.95 in 10.0 mi NNW 25.3 mph 33.4 mph N/A   Clear
2:55 PM 51.8 °F - 23.0 °F 33% 29.95 in 10.0 mi NNW 24.2 mph 29.9 mph N/A   Clear
3:15 PM 51.8 °F - 21.2 °F 30% 29.96 in 10.0 mi NNW 20.7 mph 27.6 mph N/A   Clear
3:35 PM 51.8 °F - 21.2 °F 30% 29.97 in 10.0 mi NNW 23.0 mph 29.9 mph N/A   Clear
3:55 PM 51.8 °F - 21.2 °F 30% 29.98 in 10.0 mi NNW 19.6 mph 25.3 mph N/A   Scattered Clouds
4:15 PM 51.8 °F - 21.2 °F 30% 29.99 in 10.0 mi NNW 18.4 mph 26.5 mph N/A   Scattered Clouds
4:35 PM 50.0 °F - 21.2 °F 32% 29.99 in 10.0 mi NNW 15.0 mph 21.9 mph N/A   Scattered Clouds
4:55 PM 51.8 °F - 19.4 °F 28% 30.00 in 10.0 mi NNW 20.7 mph 25.3 mph N/A   Mostly Cloudy
5:15 PM 51.8 °F - 19.4 °F 28% 30.01 in 10.0 mi NNW 15.0 mph 24.2 mph N/A   Scattered Clouds
5:35 PM 50.0 °F - 19.4 °F 30% 30.02 in 10.0 mi NNW 15.0 mph 24.2 mph N/A   Clear
5:55 PM 50.0 °F - 19.4 °F 30% 30.03 in 10.0 mi NNW 15.0 mph 18.4 mph N/A   Scattered Clouds
6:15 PM 48.2 °F - 19.4 °F 32% 30.04 in 10.0 mi NNW 12.7 mph 18.4 mph N/A   Clear
6:35 PM 44.6 °F 40.2 °F 19.4 °F 37% 30.06 in 10.0 mi NNW 8.1 mph - N/A   Clear
6:55 PM 42.8 °F 39.3 °F 21.2 °F 42% 30.07 in 10.0 mi NNW 5.8 mph - N/A   Clear
7:15 PM 41.0 °F 36.4 °F 21.2 °F 45% 30.08 in 10.0 mi NNW 6.9 mph - N/A   Clear
7:35 PM 41.0 °F 36.4 °F 21.2 °F 45% 30.09 in 10.0 mi NNW 6.9 mph - N/A   Clear
7:55 PM 39.2 °F 34.2 °F 21.2 °F 49% 30.10 in 10.0 mi North 6.9 mph - N/A   Clear
8:15 PM 37.4 °F 31.4 °F 21.2 °F 52% 30.10 in 10.0 mi North 8.1 mph - N/A   Clear
8:35 PM 35.6 °F 27.5 °F 23.0 °F 60% 30.09 in 10.0 mi NNE 11.5 mph - N/A   Clear
8:55 PM 37.4 °F 32.8 °F 21.2 °F 52% 30.09 in 10.0 mi NNE 5.8 mph - N/A   Clear
9:15 PM 37.4 °F 32.8 °F 19.4 °F 48% 30.11 in 10.0 mi NNE 5.8 mph - N/A   Clear
9:35 PM 37.4 °F 34.9 °F 19.4 °F 48% 30.12 in 10.0 mi NNE 3.5 mph - N/A   Clear
9:55 PM 35.6 °F - 19.4 °F 52% 30.12 in 10.0 mi Calm Calm - N/A   Clear
10:15 PM 37.4 °F 32.8 °F 19.4 °F 48% 30.14 in 10.0 mi SW 5.8 mph - N/A   Clear
10:35 PM 32.0 °F 28.7 °F 21.2 °F 64% 30.15 in 10.0 mi SW 3.5 mph - N/A   Clear
10:55 PM 35.6 °F 32.8 °F 19.4 °F 52% 30.16 in 10.0 mi WSW 3.5 mph - N/A   Clear
11:15 PM 33.8 °F 26.4 °F 21.2 °F 60% 30.16 in 10.0 mi SW 9.2 mph - N/A   Clear
11:35 PM 32.0 °F 26.4 °F 21.2 °F 64% 30.16 in 10.0 mi SW 5.8 mph - N/A   Clear
11:55 PM 30.2 °F 24.3 °F 21.2 °F 69% 30.16 in 10.0 mi WSW 5.8 mph - N/A   Clear